MOLNIYA 3-39 (Decayed 2009-07-08) 1 20813U 90084A 09189.90460253 .99999999 89548-5 87463-3 0 3199 2 20813 062.3518 044.6063 0346089 278.5755 153.1381 15.91472257138527 MOLNIYA 1-80 1 21118U 91012A 12033.42226841 +.00001717 +00000-0 +10000-3 0 00658 2 21118 061.6550 130.3769 7306348 266.2371 015.7745 02.00905047153606 MOLNIYA 3-40 1 21196U 91022A 12033.09582265 -.00001314 +00000-0 +10000-3 0 05494 2 21196 061.5961 111.4407 7352658 269.1321 014.4157 02.00716153152901 MOLNIYA 1-81 1 21426U 91043A 12033.24796772 +.00000152 +00000-0 +10000-3 0 06534 2 21426 062.0314 107.9756 7235942 274.1346 013.7627 02.00612775151167 MOLNIYA 3-41 1 21706U 91065A 12033.84379605 .00001432 00000-0 25086-3 0 9543 2 21706 063.2882 260.4659 7295466 285.0759 010.5928 02.04341627149530 MOLNIYA 1-83 (Decayed 2007-07-01) 1 21897U 92011A 07182.54228483 .99999999 39507-5 71364-3 0 6569 2 21897 062.0262 125.4048 0862131 260.6337 095.0674 14.64030781113010 MOLNIYA 1-84 (Decayed 2008-04-04) 1 22068U 92050A 08090.07126951 .00081002 20360-6 10000-3 0 2504 2 22068 061.4234 120.4751 4232825 269.9804 042.9330 07.21307907115547 MOLNIYA 3-42 1 22178U 92067A 12034.92488242 .00008889 00000-0 18233-2 0 1100 2 22178 062.1368 045.1553 7509322 275.8060 011.3519 02.01434316141478 MOLNIYA 3-43 (Decayed 2008-11-08) 1 22255U 92085A 08313.00370478 .39506582 68961-5 10000-3 0 2321 2 22255 063.0849 336.0925 0327870 259.1187 097.3762 15.94406168118217 MOLNIYA 1-86 1 22671U 93035A 12035.22070171 .00251161 29086-6 21137-3 0 8846 2 22671 062.6569 295.0064 5622699 285.6548 324.8799 04.78676084141421 MOLNIYA 3-45 1 22729U 93049A 12034.21737341 -.00001369 +00000-0 +10000-3 0 03353 2 22729 061.8068 143.0568 7323907 263.7223 016.5391 02.00344988135536 MOLNIYA 1-87 1 22949U 93079A 12034.61347611 -.00001090 00000-0 47532-2 0 8200 2 22949 062.2570 273.1383 7370065 255.0526 019.7702 02.01011677132816 MOLNIYA 3-46 (Decayed 2009-02-10) 1 23211U 94051A 09041.46604329 .99999999 60629-5 70923-3 0 6302 2 23211 062.1686 108.0618 0618716 264.3573 240.5314 15.21977803107058 MOLNIYA 1-88 1 23420U 94081A 12034.12748841 -.00000837 +00000-0 +93132-3 0 03598 2 23420 062.0271 085.6705 7457950 274.9037 011.9465 02.02339120125838 MOLNIYA 3-47 1 23642U 95042A 12033.63355943 .00000172 00000-0 -13222-2 0 8794 2 23642 062.0591 248.1951 7344568 260.3306 017.6836 02.00582077120813 MOLNIYA 1-89 1 24273U 96045A 12033.29165133 .00402440 -10465-4 31209-3 0 5451 2 24273 062.5053 095.9091 6878644 267.8086 177.8936 02.89359536120211 MOLNIYA 3-48 (Decayed 2007-10-18) 1 24640U 96060A 07291.13395417 .99999999 83187-5 52459-3 0 1139 2 24640 063.3472 327.2473 0128626 257.0956 102.6261 16.43397936 81211 MOLNIYA 1-90 1 24960U 97054A 12034.89361035 .00003611 00000-0 67068-3 0 3053 2 24960 062.4113 292.2105 7471458 257.5142 017.5698 02.04227591105333 MOLNIYA 3-49 (Decayed 2011-02-02) 1 25379U 98040A 11033.10479331 .97286319 66556-5 53181-3 0 4672 2 25379 063.0702 228.1245 0377390 261.8205 248.3402 15.77980215 97805 MOLNIYA 1-91 1 25485U 98054A 12034.56397414 -.00000063 +00000-0 +10000-3 0 04875 2 25485 063.5958 066.1970 7276603 254.0750 335.7094 02.00611273097790 MOLNIYA 3-50 1 25847U 99036A 12034.41800520 .00000467 00000-0 10000-3 0 1985 2 25847 063.4622 164.2142 6855635 259.9475 022.5752 02.00590848 92134 MOLNIYA 3-51 1 26867U 01030A 12034.62828619 +.00000137 +00000-0 +00000-0 0 07893 2 26867 063.9373 086.8948 7304706 256.1895 334.8788 02.00532380077242 MOLNIYA 1-92 1 27707U 03011A 12034.64178997 -.00000370 00000-0 10000-3 0 1211 2 27707 064.6315 093.2603 7340123 247.6810 350.0910 02.00698917 64786 MOLNIYA 3-53 1 27834U 03029A 12034.65675637 -.00000074 +00000-0 +00000-0 0 00783 2 27834 064.6278 093.5965 7330807 248.0484 350.2627 02.00628250063205 MOLNIYA 1-93 1 28163U 04005A 12034.56967036 +.00000199 +00000-0 +10000-3 0 07521 2 28163 064.7746 179.5127 6891213 259.6877 113.8888 02.00644843058328